Terminal Aerodrome Forecast
Issued by NWS

Home | Current Version | Previous Version | Text Only | Print | Product List | Glossary On
Versions: 1 2 3 4 5 6 7 8 9 10 11 12 13
000
FTUS45 KRIW 310536
TAFRKS
TAF
KRKS 310536Z 3106/0106 26008KT P6SM SCT100
     FM310900 19006KT P6SM FEW120
     FM312100 26013G21KT P6SM VCTS SCT080CB
     FM010200 23009KT P6SM SCT100=

USA.gov is the U.S. government's official web portal to all federal, state and local government web resources and services.